Ahwahnee, California, United States (93601)
Lat: 37.37N, Lon: 119.73W
Wx Zone: CAZ093
Local Info
Past Weather Observations for Today

NOTE: This archive is for the closest National Weather Service station to Ahwahnee. Information may differ from the station used for current weather conditions.

Click here for Long-term Archive

Time Weather Temperature Dewpoint Humidity Pressure Winds Precip Visibility
14:53
Clear
68°F / 20°C 52°F / 11°C 56% 30.18 in
(1022 mb)
NW 11.5 mph
(NW 19 kph)
- 10SM
13:53
Clear
66°F / 19°C 54°F / 12°C 64% 30.18 in
(1022 mb)
NNW 8.1 mph
(NNW 13 kph)
- 9SM
12:53
Clear
Hazy
63°F / 17°C 54°F / 12°C 73% 30.21 in
(1023 mb)
WNW 6.9 mph
(WNW 11 kph)
- 4SM
11:53
Clear
Hazy
61°F / 16°C 54°F / 12°C 77% 30.24 in
(1024 mb)
SSW 5.8 mph
(SSW 9 kph)
- 4SM
11:08
Clear
Hazy
57°F / 14°C 52°F / 11°C 82% 30.24 in
(1024 mb)
Variable 3.5 mph
(Variable 6 kph)
- 3SM
10:53
Clear
Fog And Mist
55°F / 13°C 52°F / 11°C 88% 30.27 in
(1025 mb)
SSW 3.5 mph
(SSW 6 kph)
- 2 1/2SM
10:27
Partly Cloudy
Fog And Mist
55°F / 13°C 52°F / 11°C 88% 30.27 in
(1025 mb)
SSW 3.5 mph
(SSW 6 kph)
- 2SM
10:10
Mostly Cloudy
Fog And Mist
54°F / 12°C 52°F / 11°C 94% 30.27 in
(1025 mb)
W 3.5 mph
(W 6 kph)
- 1 1/4SM
10:01
Partly Cloudy
Fog And Mist
55°F / 13°C 52°F / 11°C 88% 30.27 in
(1025 mb)
NW 5.8 mph
(NW 9 kph)
- 2SM
09:53
Partly Cloudy
Fog And Mist
55°F / 13°C 52°F / 11°C 88% 30.27 in
(1025 mb)
NW 5.8 mph
(NW 9 kph)
- 3SM
08:53
Partly Cloudy
Fog And Mist
50°F / 10°C 46°F / 8°C 88% 30.27 in
(1025 mb)
Calm - 6SM
08:50
Partly Cloudy
50°F / 10°C 46°F / 8°C 88% 30.27 in
(1025 mb)
Calm - 7SM
07:53
Clear
45°F / 7°C 43°F / 6°C 93% 30.24 in
(1024 mb)
Calm - 7SM
06:53
Clear
Fog And Mist
45°F / 7°C 43°F / 6°C 93% 30.24 in
(1024 mb)
ENE 3.5 mph
(ENE 6 kph)
- 6SM
05:53
Clear
46°F / 8°C 43°F / 6°C 87% 30.21 in
(1023 mb)
Calm - 7SM
04:53
Clear
Fog And Mist
45°F / 7°C 43°F / 6°C 93% 30.21 in
(1023 mb)
E 3.5 mph
(E 6 kph)
- 5SM
04:23
Clear
Fog And Mist
46°F / 8°C 45°F / 7°C 93% 30.21 in
(1023 mb)
Calm - 4SM
04:08
Clear
Fog And Mist
45°F / 7°C 43°F / 6°C 93% 30.21 in
(1023 mb)
Calm - 2 1/2SM
03:53
Clear
Fog And Mist
46°F / 8°C 45°F / 7°C 93% 30.21 in
(1023 mb)
Calm - 3SM
03:14
Clear
Fog And Mist
46°F / 8°C 45°F / 7°C 93% 30.21 in
(1023 mb)
Calm - 3SM
03:04
Clear
Fog And Mist
46°F / 8°C 45°F / 7°C 93% 30.21 in
(1023 mb)
Calm - 1 3/4SM
02:53
Clear
Fog And Mist
46°F / 8°C 45°F / 7°C 93% 30.21 in
(1023 mb)
Calm - 3SM
02:50
Clear
Fog And Mist
46°F / 8°C 45°F / 7°C 93% 30.21 in
(1023 mb)
Calm - 3SM
02:39
Clear
Fog And Mist
46°F / 8°C 45°F / 7°C 93% 30.21 in
(1023 mb)
Calm - 1 3/4SM
01:53
Clear
Fog And Mist
48°F / 9°C 45°F / 7°C 87% 30.21 in
(1023 mb)
Calm - 4SM
00:53
Clear
Fog And Mist
48°F / 9°C 46°F / 8°C 94% 30.21 in
(1023 mb)
E 5.8 mph
(E 9 kph)
- 5SM
00:04
Clear
Fog And Mist
50°F / 10°C 48°F / 9°C 94% 30.21 in
(1023 mb)
Calm - 3SM
Time Weather Temperature Dewpoint Humidity Pressure Winds Precip Visibility


Weather for websites

WeatherForYou.com, LLC is not responsible for any damages or problems caused by this service. Current weather conditions are obtained from the closest station including government and personal stations which may have varying degrees of accuracy. Weather forecasts are derived from the NOAA NDFD. Like all things, this site belongs to Jesus Christ... He just trusts us to maintain it. If you have any questions or comments email webmaster@weatherforyou.com

Copyright © 2016, WeatherForYou.com LLC. All rights reserved.